QPF
0.01 0.01 0.01 0.01 0.01 0.01 0.01 0.02 0.02 0.04 0.04 0.04 0.04 0.05 0.06 0.04 0.03 0.02 0.01 0.01 0.01 0.00 0.00 0.00 0.01 0.00 0.00 0.00 0.00 0.00 0.00 0.00 0.00 0.00 0.00 0.00 0.00 0.00 0.01 0.00 0.00 0.00 0.00
0.01 0.02 0.01 0.02 0.03 0.02 0.02 0.02 0.02 0.03 0.04 0.05 0.05 0.04 0.04 0.04 0.04 0.03 0.01 0.00 0.01 0.01 0.00 0.00 0.01 0.01 0.01 0.00 0.00 0.00 0.00 0.00 0.00 0.00 0.00 0.00 0.00 0.00 0.00 0.00 0.00 0.00 0.00
0.02 0.02 0.02 0.03 0.04 0.06 0.06 0.02 0.02 0.03 0.03 0.04 0.05 0.03 0.03 0.04 0.06 0.02 0.01 0.00 0.00 0.01 0.01 0.01 0.01 0.01 0.01 0.01 0.00 0.00 0.00 0.00 0.00 0.00 0.01 0.01 0.00 0.00 0.00 0.00 0.00 0.00 0.00
0.05 0.03 0.03 0.04 0.03 0.03 0.03 0.02 0.02 0.02 0.04 0.06 0.06 0.04 0.03 0.02 0.03 0.02 0.02 0.01 0.00 0.00 0.00 0.01 0.01 0.01 0.02 0.01 0.01 0.01 0.00 0.00 0.00 0.00 0.00 0.00 0.00 0.00 0.00 0.00 0.00 0.01 0.01
0.03 0.04 0.04 0.03 0.03 0.03 0.03 0.02 0.02 0.01 0.02 0.04 0.05 0.04 0.03 0.03 0.03 0.04 0.04 0.02 0.01 0.01 0.00 0.00 0.01 0.01 0.02 0.01 0.02 0.01 0.01 0.01 0.01 0.01 0.01 0.01 0.01 0.01 0.01 0.01 0.00 0.01 0.01
0.03 0.04 0.04 0.04 0.03 0.03 0.03 0.02 0.03 0.03 0.02 0.02 0.04 0.05 0.05 0.04 0.03 0.05 0.04 0.03 0.03 0.01 0.01 0.01 0.00 0.01 0.01 0.01 0.01 0.02 0.02 0.02 0.02 0.01 0.01 0.01 0.02 0.01 0.01 0.01 0.01 0.01 0.01
0.02 0.03 0.03 0.03 0.03 0.03 0.02 0.02 0.03 0.03 0.05 0.04 0.05 0.06 0.07 0.06 0.05 0.05 0.04 0.03 0.04 0.03 0.03 0.03 0.01 0.01 0.01 0.01 0.01 0.02 0.03 0.03 0.02 0.02 0.02 0.01 0.01 0.01 0.01 0.01 0.01 0.01 0.01
0.04 0.03 0.03 0.03 0.02 0.02 0.02 0.03 0.03 0.03 0.02 0.03 0.04 0.06 0.09 0.11 0.08 0.06 0.05 0.04 0.05 0.04 0.03 0.04 0.02 0.01 0.02 0.02 0.02 0.02 0.03 0.03 0.03 0.02 0.02 0.02 0.01 0.01 0.01 0.01 0.01 0.01 0.01
0.04 0.03 0.03 0.04 0.03 0.03 0.02 0.02 0.03 0.03 0.03 0.03 0.03 0.03 0.02 0.03 0.03 0.03 0.03 0.05 0.06 0.05 0.04 0.04 0.04 0.02 0.02 0.03 0.04 0.03 0.01 0.02 0.03 0.03 0.03 0.02 0.01 0.00 0.00 0.00 0.00 0.00 0.00
0.04 0.05 0.04 0.04 0.05 0.04 0.03 0.03 0.02 0.02 0.03 0.02 0.03 0.02 0.01 0.01 0.01 0.02 0.04 0.06 0.06 0.04 0.03 0.04 0.04 0.04 0.05 0.04 0.04 0.04 0.02 0.02 0.03 0.03 0.03 0.02 0.01 0.01 0.00 0.00 0.00 0.00 0.00
0.06 0.07 0.06 0.05 0.06 0.06 0.04 0.04 0.04 0.02 0.01 0.01 0.02 0.03 0.03 0.02 0.02 0.02 0.02 0.03 0.04 0.03 0.03 0.04 0.04 0.04 0.05 0.05 0.06 0.04 0.03 0.04 0.03 0.03 0.02 0.03 0.02 0.01 0.01 0.00 0.00 0.01 0.01
0.07 0.08 0.08 0.08 0.09 0.09 0.06 0.04 0.05 0.03 0.02 0.01 0.01 0.02 0.02 0.02 0.03 0.02 0.01 0.01 0.02 0.02 0.04 0.05 0.04 0.04 0.05 0.07 0.06 0.04 0.03 0.05 0.04 0.03 0.02 0.02 0.02 0.01 0.01 0.01 0.01 0.01 0.01
0.06 0.07 0.06 0.07 0.07 0.07 0.07 0.07 0.06 0.04 0.03 0.03 0.03 0.02 0.02 0.02 0.02 0.02 0.03 0.01 0.01 0.02 0.03 0.04 0.05 0.07 0.06 0.07 0.06 0.05 0.05 0.06 0.04 0.03 0.02 0.02 0.02 0.01 0.01 0.01 0.02 0.02 0.02
0.10 0.09 0.09 0.08 0.08 0.08 0.09 0.11 0.09 0.05 0.05 0.04 0.03 0.04 0.03 0.02 0.02 0.03 0.03 0.03 0.02 0.01 0.02 0.02 0.03 0.04 0.06 0.05 0.06 0.07 0.06 0.05 0.04 0.03 0.02 0.01 0.01 0.01 0.01 0.01 0.01 0.01 0.01
0.12 0.13 0.13 0.12 0.12 0.11 0.11 0.11 0.10 0.07 0.05 0.05 0.05 0.06 0.05 0.03 0.02 0.02 0.03 0.03 0.03 0.02 0.01 0.01 0.02 0.02 0.02 0.03 0.04 0.05 0.05 0.06 0.05 0.04 0.02 0.01 0.01 0.01 0.01 0.01 0.01 0.01 0.00
0.08 0.09 0.10 0.11 0.11 0.12 0.13 0.12 0.09 0.08 0.09 0.08 0.09 0.08 0.06 0.04 0.03 0.04 0.04 0.04 0.04 0.03 0.01 0.01 0.01 0.02 0.02 0.02 0.03 0.04 0.05 0.07 0.06 0.04 0.03 0.02 0.02 0.02 0.01 0.01 0.01 0.01 0.01
0.07 0.07 0.09 0.09 0.12 0.18 0.19 0.17 0.16 0.17 0.16 0.14 0.13 0.11 0.07 0.07 0.07 0.06 0.08 0.07 0.06 0.05 0.03 0.02 0.02 0.02 0.02 0.02 0.03 0.04 0.05 0.08 0.08 0.06 0.04 0.04 0.03 0.02 0.02 0.01 0.01 0.01 0.01
0.09 0.11 0.14 0.17 0.15 0.15 0.16 0.15 0.12 0.15 0.16 0.13 0.12 0.12 0.10 0.10 0.10 0.09 0.10 0.10 0.08 0.06 0.05 0.03 0.03 0.03 0.02 0.02 0.03 0.04 0.05 0.07 0.06 0.06 0.04 0.03 0.02 0.02 0.02 0.01 0.01 0.01 0.00
0.13 0.15 0.17 0.18 0.16 0.14 0.14 0.13 0.11 0.12 0.12 0.13 0.14 0.13 0.11 0.12 0.09 0.08 0.09 0.09 0.08 0.08 0.08 0.07 0.05 0.05 0.04 0.04 0.04 0.04 0.06 0.06 0.05 0.05 0.04 0.04 0.02 0.02 0.02 0.02 0.02 0.01 0.01
0.14 0.14 0.13 0.12 0.13 0.15 0.13 0.12 0.11 0.11 0.12 0.13 0.14 0.12 0.10 0.10 0.10 0.13 0.14 0.13 0.12 0.10 0.09 0.08 0.07 0.06 0.05 0.05 0.06 0.05 0.05 0.06 0.05 0.04 0.04 0.04 0.04 0.04 0.04 0.03 0.02 0.02 0.02
0.13 0.13 0.14 0.13 0.11 0.11 0.10 0.10 0.09 0.10 0.13 0.14 0.14 0.13 0.11 0.13 0.14 0.14 0.13 0.11 0.12 0.11 0.10 0.09 0.08 0.07 0.06 0.06 0.07 0.07 0.08 0.08 0.07 0.06 0.06 0.06 0.06 0.05 0.05 0.04 0.03 0.03 0.03
0.12 0.11 0.11 0.13 0.12 0.10 0.12 0.16 0.17 0.19 0.20 0.20 0.18 0.16 0.17 0.19 0.17 0.15 0.14 0.14 0.13 0.12 0.11 0.10 0.09 0.08 0.07 0.07 0.07 0.07 0.08 0.09 0.10 0.09 0.09 0.08 0.07 0.06 0.06 0.06 0.07 0.07 0.07
0.10 0.09 0.08 0.09 0.09 0.09 0.12 0.15 0.15 0.15 0.15 0.15 0.14 0.15 0.16 0.17 0.17 0.16 0.16 0.14 0.13 0.13 0.13 0.11 0.11 0.10 0.09 0.08 0.08 0.08 0.07 0.07 0.08 0.08 0.09 0.09 0.09 0.09 0.07 0.07 0.07 0.06 0.06
0.08 0.08 0.09 0.08 0.07 0.08 0.10 0.10 0.11 0.11 0.11 0.12 0.15 0.17 0.18 0.18 0.18 0.17 0.15 0.14 0.13 0.12 0.10 0.09 0.08 0.07 0.07 0.06 0.06 0.06 0.06 0.06 0.06 0.06 0.06 0.06 0.05 0.06 0.05 0.05 0.05 0.04 0.04
0.08 0.07 0.10 0.13 0.13 0.13 0.12 0.11 0.11 0.10 0.11 0.13 0.14 0.18 0.19 0.19 0.22 0.20 0.17 0.15 0.13 0.11 0.10 0.08 0.07 0.06 0.05 0.04 0.04 0.03 0.03 0.03 0.03 0.03 0.04 0.04 0.04 0.04 0.04 0.04 0.04 0.03 0.02
0.08 0.07 0.09 0.11 0.14 0.14 0.15 0.14 0.12 0.11 0.14 0.17 0.17 0.17 0.17 0.17 0.18 0.16 0.14 0.12 0.11 0.09 0.09 0.09 0.08 0.07 0.05 0.04 0.04 0.03 0.02 0.03 0.03 0.03 0.02 0.03 0.03 0.03 0.03 0.03 0.03 0.03 0.03
MSLP
1017.34 1017.52 1017.63 1017.71 1017.77 1017.85 1017.94 1018.05 1018.18 1018.31 1018.44 1018.56 1018.70 1018.84 1019.00 1019.20 1019.42 1019.66 1019.91 1020.16 1020.40 1020.62 1020.81 1020.98 1021.13 1021.27 1021.39 1021.49 1021.59 1021.68 1021.75 1021.83 1021.92 1022.02 1022.14 1022.28 1022.45 1022.62 1022.78 1022.93 1023.05 1023.13 1023.20
1017.17 1017.38 1017.54 1017.65 1017.75 1017.85 1017.97 1018.10 1018.24 1018.40 1018.55 1018.71 1018.87 1019.03 1019.20 1019.38 1019.56 1019.75 1019.95 1020.15 1020.35 1020.55 1020.74 1020.93 1021.12 1021.29 1021.44 1021.58 1021.68 1021.76 1021.83 1021.89 1021.96 1022.06 1022.19 1022.35 1022.54 1022.73 1022.92 1023.08 1023.21 1023.29 1023.35
1016.85 1017.11 1017.32 1017.49 1017.64 1017.79 1017.95 1018.12 1018.30 1018.49 1018.69 1018.89 1019.08 1019.26 1019.42 1019.58 1019.72 1019.85 1019.97 1020.10 1020.24 1020.40 1020.58 1020.78 1020.98 1021.19 1021.39 1021.55 1021.68 1021.78 1021.84 1021.90 1021.96 1022.05 1022.18 1022.35 1022.56 1022.77 1022.98 1023.16 1023.29 1023.39 1023.45
1016.43 1016.73 1016.99 1017.22 1017.45 1017.66 1017.88 1018.10 1018.33 1018.57 1018.82 1019.05 1019.28 1019.48 1019.65 1019.78 1019.88 1019.95 1019.99 1020.04 1020.11 1020.21 1020.35 1020.54 1020.76 1021.00 1021.23 1021.43 1021.59 1021.71 1021.79 1021.85 1021.92 1022.00 1022.13 1022.30 1022.50 1022.72 1022.93 1023.12 1023.27 1023.38 1023.45
1015.95 1016.26 1016.57 1016.87 1017.17 1017.46 1017.74 1018.03 1018.32 1018.61 1018.90 1019.17 1019.44 1019.66 1019.84 1019.96 1020.03 1020.04 1020.01 1019.98 1019.97 1020.01 1020.10 1020.26 1020.48 1020.73 1020.99 1021.23 1021.43 1021.58 1021.68 1021.76 1021.83 1021.91 1022.03 1022.18 1022.37 1022.58 1022.79 1022.97 1023.13 1023.25 1023.33
1015.44 1015.76 1016.10 1016.46 1016.83 1017.19 1017.54 1017.89 1018.23 1018.56 1018.89 1019.21 1019.51 1019.76 1019.96 1020.09 1020.14 1020.11 1020.04 1019.94 1019.86 1019.83 1019.86 1019.98 1020.18 1020.42 1020.69 1020.96 1021.19 1021.37 1021.50 1021.60 1021.68 1021.76 1021.87 1022.01 1022.17 1022.35 1022.54 1022.72 1022.86 1022.99 1023.08
1014.94 1015.25 1015.62 1016.02 1016.45 1016.87 1017.27 1017.67 1018.04 1018.41 1018.78 1019.13 1019.46 1019.75 1019.98 1020.13 1020.19 1020.16 1020.06 1019.92 1019.78 1019.69 1019.66 1019.72 1019.87 1020.09 1020.35 1020.62 1020.86 1021.07 1021.24 1021.36 1021.46 1021.55 1021.65 1021.77 1021.91 1022.06 1022.22 1022.37 1022.50 1022.62 1022.72
1014.47 1014.76 1015.13 1015.57 1016.03 1016.49 1016.94 1017.37 1017.77 1018.16 1018.54 1018.92 1019.28 1019.61 1019.88 1020.08 1020.17 1020.16 1020.06 1019.90 1019.73 1019.58 1019.48 1019.47 1019.56 1019.72 1019.94 1020.19 1020.44 1020.67 1020.86 1021.01 1021.14 1021.25 1021.36 1021.47 1021.59 1021.72 1021.84 1021.96 1022.08 1022.18 1022.28
1014.01 1014.28 1014.65 1015.10 1015.59 1016.08 1016.55 1016.99 1017.40 1017.79 1018.19 1018.58 1018.97 1019.34 1019.66 1019.90 1020.05 1020.08 1020.01 1019.86 1019.67 1019.47 1019.31 1019.23 1019.23 1019.31 1019.47 1019.68 1019.91 1020.13 1020.34 1020.53 1020.69 1020.84 1020.97 1021.09 1021.21 1021.32 1021.43 1021.53 1021.62 1021.71 1021.80
1013.54 1013.78 1014.15 1014.60 1015.10 1015.61 1016.09 1016.53 1016.94 1017.33 1017.73 1018.13 1018.54 1018.94 1019.31 1019.61 1019.82 1019.91 1019.88 1019.75 1019.56 1019.33 1019.12 1018.95 1018.86 1018.86 1018.93 1019.07 1019.26 1019.47 1019.69 1019.90 1020.11 1020.30 1020.47 1020.62 1020.76 1020.88 1020.98 1021.07 1021.15 1021.23 1021.31
1013.00 1013.23 1013.60 1014.06 1014.57 1015.08 1015.56 1016.01 1016.41 1016.80 1017.18 1017.58 1018.01 1018.43 1018.84 1019.20 1019.47 1019.62 1019.65 1019.56 1019.38 1019.14 1018.88 1018.64 1018.46 1018.36 1018.34 1018.40 1018.52 1018.70 1018.92 1019.15 1019.40 1019.64 1019.86 1020.06 1020.24 1020.38 1020.50 1020.59 1020.66 1020.73 1020.81
1012.40 1012.63 1013.00 1013.46 1013.97 1014.49 1014.98 1015.42 1015.82 1016.19 1016.57 1016.97 1017.40 1017.84 1018.28 1018.68 1019.01 1019.22 1019.30 1019.26 1019.11 1018.87 1018.58 1018.30 1018.04 1017.85 1017.74 1017.71 1017.77 1017.90 1018.09 1018.33 1018.60 1018.89 1019.16 1019.42 1019.64 1019.82 1019.96 1020.07 1020.14 1020.21 1020.29
1011.74 1011.97 1012.34 1012.81 1013.33 1013.85 1014.33 1014.77 1015.17 1015.55 1015.92 1016.31 1016.74 1017.19 1017.65 1018.08 1018.44 1018.71 1018.85 1018.86 1018.75 1018.53 1018.25 1017.94 1017.64 1017.38 1017.19 1017.08 1017.06 1017.14 1017.29 1017.51 1017.79 1018.09 1018.41 1018.70 1018.97 1019.19 1019.36 1019.48 1019.56 1019.63 1019.70
1011.08 1011.31 1011.68 1012.15 1012.66 1013.17 1013.66 1014.10 1014.50 1014.87 1015.24 1015.63 1016.05 1016.50 1016.96 1017.41 1017.80 1018.11 1018.30 1018.37 1018.32 1018.16 1017.91 1017.61 1017.30 1017.01 1016.76 1016.59 1016.50 1016.50 1016.59 1016.77 1017.02 1017.32 1017.63 1017.95 1018.24 1018.48 1018.67 1018.81 1018.90 1018.97 1019.03
1010.50 1010.73 1011.08 1011.53 1012.02 1012.52 1013.00 1013.43 1013.83 1014.20 1014.57 1014.95 1015.36 1015.79 1016.25 1016.70 1017.10 1017.44 1017.69 1017.83 1017.85 1017.77 1017.59 1017.35 1017.06 1016.77 1016.51 1016.28 1016.13 1016.06 1016.07 1016.18 1016.36 1016.61 1016.89 1017.19 1017.47 1017.71 1017.91 1018.05 1018.14 1018.21 1018.26
1010.12 1010.32 1010.64 1011.04 1011.49 1011.96 1012.40 1012.82 1013.21 1013.57 1013.93 1014.30 1014.69 1015.11 1015.54 1015.98 1016.39 1016.76 1017.06 1017.26 1017.37 1017.39 1017.31 1017.16 1016.94 1016.69 1016.43 1016.19 1015.98 1015.83 1015.76 1015.76 1015.85 1016.02 1016.23 1016.47 1016.71 1016.92 1017.10 1017.23 1017.32 1017.38 1017.42
1010.03 1010.18 1010.44 1010.78 1011.16 1011.56 1011.96 1012.34 1012.69 1013.03 1013.37 1013.72 1014.09 1014.48 1014.89 1015.31 1015.72 1016.10 1016.44 1016.71 1016.92 1017.04 1017.08 1017.04 1016.93 1016.75 1016.53 1016.28 1016.03 1015.82 1015.64 1015.54 1015.51 1015.56 1015.67 1015.82 1015.99 1016.16 1016.30 1016.41 1016.49 1016.53 1016.56
1010.26 1010.35 1010.54 1010.78 1011.08 1011.40 1011.72 1012.04 1012.34 1012.65 1012.95 1013.27 1013.61 1013.96 1014.34 1014.73 1015.12 1015.51 1015.88 1016.22 1016.51 1016.74 1016.90 1016.98 1016.98 1016.89 1016.72 1016.49 1016.23 1015.95 1015.69 1015.47 1015.32 1015.24 1015.23 1015.28 1015.37 1015.47 1015.58 1015.66 1015.72 1015.75 1015.76
1010.83 1010.85 1010.95 1011.10 1011.29 1011.50 1011.74 1011.98 1012.22 1012.47 1012.73 1013.01 1013.31 1013.62 1013.96 1014.31 1014.68 1015.06 1015.44 1015.81 1016.17 1016.49 1016.76 1016.95 1017.05 1017.05 1016.95 1016.75 1016.48 1016.16 1015.82 1015.51 1015.24 1015.05 1014.93 1014.88 1014.88 1014.93 1014.99 1015.05 1015.09 1015.10 1015.11
1011.67 1011.64 1011.65 1011.70 1011.79 1011.90 1012.03 1012.18 1012.36 1012.55 1012.76 1012.98 1013.23 1013.50 1013.79 1014.10 1014.43 1014.79 1015.16 1015.55 1015.94 1016.32 1016.66 1016.93 1017.12 1017.19 1017.15 1016.99 1016.72 1016.38 1016.00 1015.62 1015.27 1014.98 1014.77 1014.64 1014.58 1014.58 1014.60 1014.64 1014.66 1014.66 1014.65
1012.70 1012.63 1012.58 1012.55 1012.55 1012.57 1012.61 1012.67 1012.77 1012.89 1013.05 1013.23 1013.43 1013.66 1013.90 1014.16 1014.44 1014.75 1015.09 1015.46 1015.85 1016.25 1016.62 1016.94 1017.18 1017.31 1017.31 1017.18 1016.94 1016.59 1016.19 1015.77 1015.37 1015.03 1014.76 1014.59 1014.49 1014.45 1014.45 1014.47 1014.48 1014.47 1014.42
1013.82 1013.74 1013.66 1013.58 1013.51 1013.45 1013.42 1013.41 1013.44 1013.51 1013.62 1013.76 1013.92 1014.10 1014.29 1014.50 1014.73 1014.99 1015.27 1015.59 1015.95 1016.31 1016.67 1017.00 1017.25 1017.40 1017.43 1017.34 1017.11 1016.79 1016.39 1015.97 1015.56 1015.20 1014.92 1014.72 1014.61 1014.56 1014.55 1014.55 1014.55 1014.51 1014.43
1014.95 1014.89 1014.81 1014.71 1014.60 1014.50 1014.42 1014.36 1014.34 1014.37 1014.44 1014.54 1014.67 1014.81 1014.96 1015.13 1015.30 1015.49 1015.71 1015.96 1016.24 1016.55 1016.86 1017.15 1017.38 1017.53 1017.57 1017.49 1017.29 1017.00 1016.63 1016.23 1015.85 1015.51 1015.23 1015.04 1014.93 1014.88 1014.86 1014.86 1014.83 1014.76 1014.63
1016.05 1016.03 1015.97 1015.88 1015.77 1015.64 1015.53 1015.45 1015.40 1015.40 1015.45 1015.53 1015.64 1015.75 1015.88 1016.00 1016.12 1016.24 1016.39 1016.56 1016.76 1016.98 1017.21 1017.44 1017.62 1017.74 1017.77 1017.70 1017.53 1017.27 1016.94 1016.59 1016.24 1015.94 1015.70 1015.53 1015.42 1015.37 1015.34 1015.31 1015.25 1015.14 1014.96
1017.10 1017.13 1017.10 1017.04 1016.94 1016.81 1016.70 1016.60 1016.54 1016.53 1016.57 1016.64 1016.73 1016.84 1016.94 1017.03 1017.11 1017.18 1017.25 1017.34 1017.45 1017.58 1017.73 1017.87 1018.00 1018.07 1018.08 1018.01 1017.85 1017.63 1017.35 1017.04 1016.74 1016.48 1016.26 1016.11 1016.01 1015.95 1015.91 1015.84 1015.74 1015.57 1015.32
1018.13 1018.19 1018.20 1018.16 1018.07 1017.96 1017.84 1017.75 1017.69 1017.67 1017.71 1017.78 1017.87 1017.97 1018.06 1018.13 1018.18 1018.20 1018.22 1018.24 1018.27 1018.32 1018.38 1018.45 1018.51 1018.54 1018.51 1018.43 1018.29 1018.08 1017.84 1017.57 1017.31 1017.07 1016.88 1016.74 1016.63 1016.54 1016.46 1016.35 1016.19 1015.95 1015.65
Thickness
5753 5751 5750 5749 5748 5747 5746 5745 5744 5744 5744 5744 5742 5740 5738 5736 5734 5733 5731 5729 5727 5726 5724 5723 5721 5719 5718 5717 5716 5715 5713 5712 5711 5710 5708 5707 5706 5705 5704 5703 5702 5701 5699
5754 5752 5750 5749 5748 5747 5746 5745 5744 5744 5743 5743 5742 5740 5738 5736 5735 5733 5731 5729 5727 5726 5725 5723 5721 5720 5719 5717 5716 5715 5714 5712 5711 5709 5708 5707 5706 5705 5704 5703 5702 5700 5699
5754 5752 5750 5749 5749 5748 5747 5745 5744 5744 5743 5743 5741 5740 5738 5737 5735 5733 5731 5730 5728 5726 5725 5724 5722 5721 5719 5718 5717 5715 5714 5712 5711 5710 5708 5707 5706 5705 5704 5703 5701 5700 5699
5754 5752 5750 5749 5749 5748 5747 5745 5744 5742 5741 5740 5740 5739 5738 5737 5735 5734 5732 5730 5729 5727 5726 5725 5723 5722 5721 5719 5718 5716 5715 5713 5712 5710 5709 5708 5706 5705 5704 5703 5702 5700 5699
5754 5752 5750 5749 5749 5748 5746 5745 5743 5742 5739 5738 5739 5738 5738 5737 5736 5734 5733 5731 5730 5729 5728 5726 5725 5723 5722 5721 5720 5718 5716 5715 5713 5711 5710 5709 5707 5706 5705 5704 5702 5701 5700
5754 5752 5750 5749 5748 5746 5745 5744 5742 5741 5739 5738 5738 5737 5737 5737 5737 5736 5734 5733 5731 5730 5729 5728 5726 5725 5724 5722 5721 5720 5718 5716 5714 5713 5711 5710 5709 5707 5706 5705 5703 5702 5701
5754 5752 5750 5749 5747 5745 5744 5743 5741 5739 5738 5738 5734 5731 5733 5736 5736 5736 5735 5734 5733 5732 5730 5729 5728 5727 5726 5724 5722 5721 5719 5718 5716 5715 5713 5712 5710 5709 5707 5706 5705 5704 5703
5754 5752 5750 5748 5746 5744 5743 5742 5740 5737 5736 5737 5731 5725 5722 5726 5732 5737 5736 5735 5734 5733 5732 5731 5730 5729 5727 5726 5724 5723 5721 5720 5718 5717 5715 5714 5712 5711 5709 5708 5706 5705 5704
5753 5752 5750 5748 5746 5744 5742 5741 5740 5737 5733 5734 5735 5729 5720 5717 5724 5731 5735 5736 5735 5734 5734 5734 5732 5731 5729 5727 5726 5725 5723 5721 5720 5718 5717 5715 5714 5712 5711 5709 5708 5706 5705
5753 5751 5749 5748 5746 5744 5742 5741 5741 5739 5735 5731 5732 5733 5732 5729 5722 5722 5729 5734 5735 5735 5735 5735 5734 5733 5731 5729 5728 5726 5725 5723 5721 5720 5719 5717 5715 5713 5712 5710 5709 5707 5706
5752 5751 5749 5747 5746 5744 5743 5742 5740 5739 5737 5734 5732 5731 5730 5729 5728 5722 5720 5726 5731 5735 5736 5736 5736 5734 5733 5731 5730 5728 5727 5725 5723 5721 5720 5718 5716 5714 5713 5711 5709 5708 5706
5750 5750 5749 5747 5745 5744 5742 5741 5740 5739 5738 5736 5734 5732 5730 5727 5725 5724 5721 5722 5724 5731 5735 5736 5736 5735 5734 5733 5731 5730 5728 5726 5724 5723 5721 5719 5717 5715 5713 5711 5710 5708 5707
5749 5749 5749 5747 5745 5744 5742 5741 5739 5738 5737 5736 5734 5733 5732 5731 5731 5728 5723 5721 5722 5727 5731 5734 5736 5736 5735 5733 5732 5730 5728 5727 5725 5723 5721 5719 5717 5715 5714 5712 5710 5708 5706
5750 5750 5748 5747 5745 5743 5741 5739 5738 5738 5737 5736 5735 5734 5732 5732 5732 5730 5727 5722 5717 5719 5723 5728 5734 5736 5735 5733 5732 5730 5729 5727 5725 5723 5721 5718 5716 5714 5713 5711 5709 5707 5706
5751 5750 5748 5746 5744 5742 5740 5738 5736 5736 5736 5735 5734 5733 5732 5732 5732 5731 5729 5726 5719 5713 5715 5723 5728 5733 5734 5732 5731 5729 5728 5727 5725 5722 5720 5718 5715 5713 5711 5709 5708 5706 5704
5751 5749 5747 5745 5743 5741 5739 5737 5736 5735 5733 5733 5732 5731 5730 5730 5730 5729 5728 5726 5724 5718 5715 5720 5724 5729 5730 5731 5729 5728 5726 5724 5723 5721 5719 5716 5714 5712 5710 5707 5705 5704 5702
5751 5749 5747 5744 5742 5740 5738 5736 5735 5734 5732 5730 5730 5729 5728 5728 5727 5727 5726 5724 5722 5719 5715 5718 5721 5724 5724 5725 5725 5724 5722 5720 5718 5717 5715 5713 5711 5709 5707 5704 5702 5700 5698
5750 5748 5746 5743 5741 5739 5737 5735 5733 5732 5729 5728 5728 5727 5726 5726 5724 5724 5722 5721 5720 5718 5715 5713 5715 5717 5718 5719 5719 5717 5716 5715 5713 5713 5711 5709 5707 5705 5703 5701 5699 5696 5694
5747 5746 5743 5740 5738 5736 5734 5733 5731 5729 5728 5727 5726 5725 5724 5723 5721 5720 5719 5718 5717 5717 5714 5710 5709 5711 5711 5712 5710 5710 5709 5708 5707 5706 5705 5704 5702 5700 5698 5696 5694 5692 5689
5744 5742 5740 5737 5735 5733 5732 5731 5729 5728 5726 5726 5725 5724 5723 5721 5720 5718 5716 5715 5714 5711 5708 5706 5704 5703 5702 5703 5701 5699 5698 5698 5698 5698 5698 5696 5695 5694 5692 5690 5689 5686 5684
5740 5738 5735 5733 5731 5729 5729 5727 5726 5725 5723 5722 5721 5720 5720 5719 5718 5716 5714 5711 5709 5706 5703 5700 5697 5694 5692 5691 5690 5690 5688 5687 5688 5688 5688 5687 5686 5685 5684 5682 5681 5679 5676
5734 5732 5730 5728 5726 5726 5725 5724 5723 5721 5719 5717 5715 5714 5714 5713 5712 5711 5709 5707 5704 5701 5697 5693 5690 5686 5684 5683 5682 5681 5678 5676 5674 5677 5676 5675 5675 5673 5673 5672 5670 5668 5666
5728 5725 5724 5722 5720 5719 5719 5718 5717 5716 5714 5711 5710 5708 5707 5707 5705 5703 5701 5699 5696 5695 5692 5688 5683 5680 5677 5675 5673 5671 5668 5666 5664 5665 5664 5663 5663 5660 5661 5660 5658 5657 5655
5722 5719 5717 5715 5713 5712 5712 5712 5711 5709 5706 5704 5703 5701 5700 5698 5697 5695 5692 5689 5686 5684 5683 5680 5677 5673 5670 5668 5665 5662 5660 5657 5656 5654 5654 5650 5649 5648 5648 5647 5646 5644 5643
5716 5713 5710 5708 5706 5704 5704 5704 5703 5701 5698 5696 5695 5693 5692 5689 5688 5686 5683 5680 5676 5673 5672 5669 5667 5663 5660 5657 5655 5652 5648 5644 5641 5640 5640 5638 5636 5635 5635 5634 5633 5631 5630
5709 5706 5702 5700 5698 5697 5696 5696 5696 5693 5690 5686 5684 5683 5681 5680 5678 5676 5674 5671 5666 5662 5660 5658 5655 5652 5648 5646 5643 5640 5637 5632 5628 5626 5626 5624 5623 5621 5619 5620 5619 5618 5617